Hourly Data Report for October 11, 2015

All times are specified in Local Standard Time (LST). Add 1 hour to adjust for Daylight Saving Time where and when it is observed.

HALL BEACH A
NUNAVUT

68°46'33.000" N
81°14'33.000" W
9.10 m
2402354
71293
YUX

Download Data

Hourly Data (October 2015)
Hourly Data Report for October 11, 2015
Temp Definition
°C
Dew Point Temp Definition
°C
Rel Hum Definition
%
Wind Dir Definition
10's deg

Wind Spd Definition
km/h
Visibility Definition
km
Stn Press Definition
kPa
Hmdx Definition


Wind Chill Definition


Weather Definition


TIME
00:00 Legend Double Dagger 0.3 -0.3 96 4 30 6.4 100.20     Snow
01:00 Legend Double Dagger 0.2 -0.4 96 7 24 8.1 100.19     Snow
02:00 Legend Double Dagger 0.8 0.1 95 8 22 16.1 100.19     Snow
03:00 Legend Double Dagger 0.9 0.2 95 7 18 11.3 100.17     Snow
04:00 Legend Double Dagger 1.1 0.4 95 6 18 16.1 100.16     Rain
05:00 Legend Double Dagger 1.2 0.6 96 6 21 3.6 100.17     Snow
06:00 Legend Double Dagger 1.2 0.9 98 7 21 2.8 100.19     Snow
07:00 Legend Double Dagger 1.4 1.0 97 7 21 8.1 100.18     Snow
08:00 Legend Double Dagger 1.5 1.2 98 8 18 6.4 100.18     Fog
09:00 Legend Double Dagger 1.6 1.3 98 11 17 16.1 100.19     Rain
10:00 Legend Double Dagger 1.7 1.4 98 12 17 16.1 100.18     LegendNANA
11:00 Legend Double Dagger 1.7 1.4 98 11 13 16.1 100.20     LegendNANA
12:00 Legend Double Dagger 1.6 1.2 97 12 17 16.1 100.20     LegendNANA
13:00 Legend Double Dagger 1.2 0.9 98 13 18 16.1 100.22     LegendNANA
14:00 Legend Double Dagger 1.3 1.0 98 14 17 6.4 100.22     Fog
15:00 Legend Double Dagger 1.3 0.6 95 17 11 16.1 100.25     LegendNANA
16:00 Legend Double Dagger 0.8 0.5 98 17 8 9.7 100.25     Fog
17:00 Legend Double Dagger 0.2 0.2 100 LegendMM 4 0.4 100.26     Fog
18:00 Legend Double Dagger 0.4 0.4 100 16 11 4.0 100.26     Fog
19:00 Legend Double Dagger 0.0 0.0 100 18 8 16.1 100.27   -3 LegendNANA
20:00 Legend Double Dagger -0.9 -0.9 100 27 5 11.3 100.26   -3 Snow
21:00 Legend Double Dagger -0.5 -0.5 100 27 9 9.7 100.23   -4 Fog
22:00 Legend Double Dagger -0.8 -0.8 100 29 5 16.1 100.23   -2 LegendNANA
23:00 Legend Double Dagger -0.8 -0.8 100 31 13 16.1 100.21   -5 LegendNANA

Notes on Data Quality.

Legend

  • E = Estimated
  • M = Missing
  • NA = Not Available
  • ‡ = Partner data that is not subject to review by the National Climate Archives
Date modified: